sat.trackr.live / text

‹ back to catalog

STARLINK-31619

NORAD 59531 · 2024-073W

PAYLOAD ACTIVE UNKNOWN

§ Identity

Operator
Country
US
Launch date
2024-04-17
Launch site
AFETR
Launch vehicle
Mass (kg)
RCS (m²)

Purposes: comms

External: N2YO · Heavens-Above · Gunter

§ Orbital elements

Epoch: 2026-09-21T08:49:30.051552Z

Period
94.27 min
Inclination
43.0017°
Eccentricity
0.0001036
Mean motion
15.27579338 rev/d
Perigee alt
482.3 km
Apogee alt
483.8 km
Semi-major
6,861.2 km
B*
3.4357e-5
RAAN
292.7958°
Arg perigee
268.7878°
Mean anomaly
91.2855°
Rev number
13,722

§ Raw data

STARLINK-316191 59531U 24073W   26264.36770893  .00000684  00000+0  34357-4 0  99952 59531  43.0017 292.7958 0001036 268.7878  91.2855 15.27579338137223

JSON: /api/v1/satellites/59531 · /tle

For live sub-satellite position, see the globe view (requires WebGL).

§ Visibility from observer

Set your observer location to see the next 7 days of passes ≥ 10°. The values pass through the URL so the page stays shareable.

No JS? Fill the form by hand. The geolocation button needs JavaScript.